CW4534 Weather Reports


Display with metric or nautical units.
time (UTC)temp
F
wind
direction
speed
MPH
gust
MPH
rain 1hr
in
rain 24hr
in
rain mn
in
humidity
%
barometer
mb
20260507111532 50 347 5.0 9.0 0.00 0.00 0.00 52 1018.8
20260507110034 51 359 5.0 10.0 0.00 0.00 0.00 50 1018.6
20260507104535 51 11 5.0 7.0 0.00 0.00 0.00 51 1018.7
20260507103034 51 354 4.0 8.0 0.00 0.00 0.00 52 1018.5
20260507101537 52 13 2.0 5.0 0.00 0.00 0.00 48 1018.6
20260507100039 52 329 2.0 3.0 0.00 0.00 0.00 47 1018.5
20260507094538 51 329 4.0 4.0 0.00 0.00 0.00 50 1018.5
20260507093032 54 15 3.0 4.0 0.00 0.00 0.00 46 1018.5
20260507091535 54 355 1.0 5.0 0.00 0.00 0.00 44 1018.4
20260507090037 56 333 2.0 3.0 0.00 0.00 0.00 41 1018.3
20260507084534 56 343 3.0 4.0 0.00 0.00 0.00 40 1018.2
20260507083035 56 333 3.0 4.0 0.00 0.00 0.00 41 1018.2
20260507081543 58 347 3.0 7.0 0.00 0.00 0.00 41 1018.1
20260507080033 58 348 3.0 7.0 0.00 0.00 0.00 40 1017.9
20260507074552 58 13 2.0 7.0 0.00 0.00 0.00 40 1017.8
20260507073035 58 336 2.0 3.0 0.00 0.00 0.00 38 1017.7
20260507071535 60 26 0.0 2.0 0.00 0.00 0.00 38 1017.7
20260507070034 61 0 0.0 0.0 0.00 0.00 0.00 37 1017.9
20260507064532 62 0 0.0 0.0 0.00 0.00 0.00 35 1017.7
20260507063034 65 0 0.0 0.0 0.00 0.00 0.00 33 1017.5
20260507061534 66 71 0.0 0.0 0.00 0.00 0.00 32 1017.3
20260507060035 66 0 0.0 2.0 0.00 0.00 0.00 32 1017.2
20260507054542 66 0 0.0 1.0 0.00 0.00 0.00 32 1017.1
20260507053035 66 0 0.0 4.0 0.00 0.00 0.00 31 1017.1
20260507051531 67 0 0.0 3.0 0.00 0.00 0.00 31 1016.8
20260507050032 68 124 0.0 1.0 0.00 0.00 0.00 31 1016.6
20260507044539 68 120 0.0 4.0 0.00 0.00 0.00 30 1016.4
20260507043035 68 199 3.0 6.0 0.00 0.00 0.00 30 1016.4
20260507041534 69 117 3.0 7.0 0.00 0.00 0.00 30 1016.0
20260507040037 70 152 0.0 12.0 0.00 0.00 0.00 28 1015.8
20260507034533 71 209 8.0 18.0 0.00 0.00 0.00 27 1015.5
20260507033034 71 234 12.0 21.0 0.00 0.00 0.00 27 1015.1
20260507031534 72 235 13.0 22.0 0.00 0.00 0.00 27 1014.9
20260507030044 72 239 13.0 22.0 0.00 0.00 0.00 26 1014.6
20260507024541 72 198 12.0 24.0 0.00 0.00 0.00 26 1014.3
20260507023034 73 221 12.0 22.0 0.00 0.00 0.00 25 1014.0
20260507021535 74 226 9.0 18.0 0.00 0.00 0.00 25 1013.7
20260507020034 75 259 10.0 22.0 0.00 0.00 0.00 25 1013.6
20260507014545 76 269 11.0 20.0 0.00 0.00 0.00 24 1013.4
20260507013033 78 277 10.0 14.0 0.00 0.00 0.00 22 1013.3
20260507011534 79 280 7.0 18.0 0.00 0.00 0.00 21 1013.2
20260507010034 80 267 6.0 10.0 0.00 0.00 0.00 20 1013.3
20260507004532 80 158 3.0 7.0 0.00 0.00 0.00 20 1013.1
20260507003035 80 153 5.0 8.0 0.00 0.00 0.00 20 1013.1
20260507001537 81 131 3.0 8.0 0.00 0.00 0.00 19 1013.1
20260507000040 81 164 0.0 4.0 0.00 0.00 0.00 20 1013.0
20260506234534 80 241 2.0 9.0 0.00 0.00 0.00 20 1013.0
20260506233034 80 0 2.0 9.0 0.00 0.00 0.00 20 1013.1
20260506231531 79 124 5.0 9.0 0.00 0.00 0.00 20 1013.2
20260506230032 79 235 2.0 10.0 0.00 0.00 0.00 20 1013.3
20260506224535 80 169 4.0 12.0 0.00 0.00 0.00 21 1013.3
20260506223036 78 134 5.0 9.0 0.00 0.00 0.00 20 1013.6
20260506221534 79 75 2.0 8.0 0.00 0.00 0.00 20 1013.8
20260506220036 78 117 3.0 9.0 0.00 0.00 0.00 21 1014.0
20260506214531 77 160 1.0 12.0 0.00 0.00 0.00 21 1014.3
20260506213031 77 94 5.0 12.0 0.00 0.00 0.00 22 1014.5
20260506211536 77 83 5.0 10.0 0.00 0.00 0.00 22 1014.7
20260506210034 77 81 3.0 10.0 0.00 0.00 0.00 22 1014.9
20260506204532 76 91 3.0 10.0 0.00 0.00 0.00 23 1015.0
20260506203037 74 80 5.0 13.0 0.00 0.00 0.00 24 1015.2
20260506201533 75 323 2.0 8.0 0.00 0.00 0.00 24 1015.3
20260506200033 75 327 2.0 7.0 0.00 0.00 0.00 24 1015.5
20260506194530 74 134 3.0 9.0 0.00 0.00 0.00 26 1015.9
20260506193034 74 266 5.0 9.0 0.00 0.00 0.00 26 1016.1
20260506191535 72 46 2.0 8.0 0.00 0.00 0.00 26 1016.2
20260506190034 72 44 1.0 9.0 0.00 0.00 0.00 27 1016.4
20260506184531 72 89 4.0 9.0 0.00 0.00 0.00 27 1016.8
20260506183032 71 139 2.0 8.0 0.00 0.00 0.00 28 1017.0
20260506181532 69 0 3.0 7.0 0.00 0.00 0.00 30 1017.1
20260506180045 69 124 2.0 6.0 0.00 0.00 0.00 30 1017.2
20260506174541 70 120 2.0 7.0 0.00 0.00 0.00 30 1017.4
20260506173035 66 310 3.0 6.0 0.00 0.00 0.00 31 1017.6
20260506171533 65 114 3.0 6.0 0.00 0.00 0.00 32 1017.6
20260506170031 64 117 2.0 7.0 0.00 0.00 0.00 35 1017.7
20260506164534 64 50 1.0 6.0 0.00 0.00 0.00 36 1017.8
20260506163055 62 146 3.0 5.0 0.00 0.00 0.00 38 1017.7
20260506161533 62 44 1.0 4.0 0.00 0.00 0.00 39 1017.7
20260506160035 60 321 3.0 6.0 0.00 0.00 0.00 42 1017.8
20260506154550 60 68 0.0 4.0 0.00 0.00 0.00 41 1017.7
20260506153043 58 74 1.0 4.0 0.00 0.00 0.00 44 1017.8
20260506151535 57 72 2.0 4.0 0.00 0.00 0.00 46 1017.8
20260506150034 55 0 0.0 3.0 0.00 0.00 0.00 49 1017.9
20260506144541 54 0 1.0 3.0 0.00 0.00 0.00 49 1017.8
20260506143045 52 0 0.0 3.0 0.00 0.00 0.00 52 1017.7
20260506141537 51 0 0.0 2.0 0.00 0.00 0.00 54 1017.6
20260506140034 49 0 0.0 1.0 0.00 0.00 0.00 58 1017.6
20260506134534 47 0 0.0 2.0 0.00 0.00 0.00 62 1017.6
20260506133035 45 15 1.0 3.0 0.00 0.00 0.00 64 1017.4
20260506131533 44 4 0.0 2.0 0.00 0.00 0.00 66 1017.3
20260506130034 42 336 2.0 3.0 0.00 0.00 0.00 65 1017.0
20260506124535 42 330 1.0 2.0 0.00 0.00 0.00 68 1016.8
20260506123036 42 319 1.0 3.0 0.00 0.00 0.00 69 1016.6
20260506121540 42 0 0.0 1.0 0.00 0.00 0.00 67 1016.3
20260506120033 43 3 3.0 6.0 0.00 0.00 0.00 64 1016.2
20260506114542 44 324 1.0 2.0 0.00 0.00 0.00 56 1016.2
20260506113034 46 323 2.0 3.0 0.00 0.00 0.00 57 1016.1